Showing default

SNAP-3 EDDIE, 40972

Orbit data source: Space-Track

SNAP-3 EDDIE, 40972 is a payload satellite owned by SMDC (US) in LEO that was launched on Thu, 08 Oct 2015 UTC via an ATLAS V 401 launch vehicle from the Air Force Western Test Range (AFWTR). Payload-class satellites include a variety of spacecraft equipped with specific instruments for various scientific and technological missions. These include communications satellites like Starlink; space stations such as the ISS; scientific satellites like the Hubble; Earth observation satellites from companies like Planet Labs, Umbra, and HawkEye 360; GPS; miniature CubeSats for education and research; and military/defense satellites.

Loading next visibility...
Identifier
40972, 2015-058J
Orbit
LEO
Country
Flag of USUS
Related business
Manufacturer
Duocomm Miltec
Mission
Operational Defense Communications
Bus & Motor
CUBESAT 3U, Unknown motor
Mass
5.3 kg wet, 4.5 kg dry
Launch date (UTC)
2015-10-08 (10 years ago)
Launch vehicle
ATLAS V 401
Launch site
Air Force Western Test Range (AFWTR)
Object type
Payload
Rocket body
Debris
Shape & HBR
Box + 8 Pan, 0.3 m
Radar Cross Section
0.085 m², Medium (>0.1 m² and < 1m²)

Expand to show TLE details & history
Last TLE update: 12 hours ago

TLE from 12 hours ago
0 SNAP-3 EDDIE
1 40972U 15058J   25296.37758831  .00043706  00000-0  14432-2 0  9993
2 40972  64.7540 172.8425 0061110 150.5215 209.9386 15.29335197 82481
Epoch: 2025-10-23T09:03Z
TLE epoch observation values (Epoch: 2025-10-23T09:03:43.629Z)
Latitude
-0.00002°
Longitude
4.87299°
Altitude
516.212 km
Speed
7.586 km/s
True Right ascension
11h 31m 22s
True Declination
0° 00' 00"
Sunlit
Object was in daylight at epoch
Visualization orbit readout
Latitude
Unknown
Longitude
Unknown
Altitude
Unknown
Speed
Unknown
Apparent Right ascension
Unknown
Apparent Declination
Unknown
Sunlit
N/A
Visualization observer readout
Local Sidereal Time
16:16:39
Azimuth
Unknown
Elevation
Unknown
Doppler factor
Unknown
Orbital elements
Apogee altitude
518.231 km
Perigee altitude
434.456 km
Semi-major axis
6,854.481 km
Eccentricity
0.00611
Inclination
64.754°
RAAN
172.8425°
Arg. of periapsis
150.5215°
True anomaly
209.59142°
Mean anomaly
209.9386°
Eccentric anomaly
209.76478°
Mean motion
3.82456 °/min
Orbital period
94.13 mins
BSTAR
0.0014432
Loading maneuver chart data...
Computing Atmospheric mass density...
Loading historical data...
Loading historical data...
Loading historical data...
Loading historical data...
Loading historical data...
Loading historical data...
Loading historical data...

Documentation

Showing up to 5 results
|